CW7109 Weather Reports


time (UTC)temp
F
wind
direction
speed
knots
gust
knots
rain 1hr
in
rain 24hr
in
rain mn
in
humidity
%
barometer
mb
20260507075132 53 63 0.0 1.7 0.01 0.26 0.03 80 1011.6
20260507074132 53 344 0.0 2.6 0.01 0.26 0.03 80 1011.4
20260507072132 54 77 1.7 3.5 0.00 0.25 0.02 79 1011.8
20260507071132 54 276 0.9 3.5 0.00 0.25 0.02 79 1012.1
20260507070132 55 90 0.9 6.1 0.00 0.25 0.02 80 1011.8
20260507065132 55 329 0.0 3.5 0.00 0.25 0.02 80 1011.9
20260507064132 55 273 0.9 2.6 0.00 0.25 0.02 80 1011.8
20260507061131 56 213 0.0 1.7 0.01 0.25 0.02 79 1011.9
20260507060131 56 109 0.0 0.9 0.02 0.25 0.02 79 1011.8
20260507055131 57 273 0.0 0.9 0.04 0.25 0.02 79 1012.0
20260507054131 57 273 0.0 1.7 0.10 0.25 0.02 79 1011.8
20260507052130 58 344 0.9 0.9 0.09 0.24 0.01 79 1012.0
20260507051130 58 277 0.0 1.7 0.09 0.24 0.01 78 1011.8
20260507050200 59 201 0.9 2.6 0.08 0.23 0.00 77 1012.3
20260507045130 60 290 0.9 2.6 0.06 0.21 0.21 77 1012.2
20260507043130 61 277 0.0 3.5 0.00 0.15 0.15 73 1012.0
20260507042130 61 145 0.0 2.6 0.00 0.15 0.15 72 1011.6
20260507041130 62 338 0.0 3.5 0.00 0.15 0.15 71 1011.7
20260507035130 63 306 0.9 1.7 0.00 0.15 0.15 69 1011.1
20260507034130 63 107 0.0 3.5 0.00 0.15 0.15 69 1011.2
20260507033130 63 333 0.0 3.5 0.00 0.15 0.15 69 1011.4
20260507032130 64 311 0.0 5.2 0.00 0.15 0.15 69 1011.1
20260507031130 64 59 2.6 2.6 0.00 0.15 0.15 73 1010.9
20260507030130 65 101 0.0 2.6 0.00 0.15 0.15 73 1010.5
20260507024159 65 53 0.0 1.7 0.00 0.15 0.15 73 1010.6
20260507022129 66 296 0.0 2.6 0.00 0.15 0.15 72 1010.5
20260507021129 66 243 0.0 2.6 0.00 0.15 0.15 71 1010.9
20260507020159 66 235 0.0 2.6 0.00 0.15 0.15 73 1010.4
20260507014159 67 315 0.0 2.6 0.00 0.15 0.15 74 1010.9
20260507013129 68 129 0.0 2.6 0.00 0.15 0.15 75 1010.9
20260507012158 68 189 0.9 4.3 0.00 0.15 0.15 76 1010.5
20260507010158 68 239 0.0 0.9 0.00 0.15 0.15 74 1010.2
20260507004158 68 213 0.0 1.7 0.00 0.15 0.15 74 1010.2
20260507003158 68 271 0.0 2.6 0.00 0.15 0.15 74 1009.9
20260507002158 68 221 0.0 1.7 0.00 0.15 0.15 74 1009.8
20260507001158 69 195 0.0 0.9 0.00 0.15 0.15 73 1009.9
20260507000158 69 51 0.0 1.7 0.00 0.15 0.15 73 1009.8
20260506235158 69 311 0.0 0.9 0.00 0.15 0.15 73 1009.5
20260506234157 69 271 0.0 0.0 0.00 0.15 0.15 73 1009.6
20260506233158 69 271 0.0 0.9 0.00 0.15 0.15 73 1009.5
20260506232157 69 271 0.0 0.0 0.00 0.15 0.15 72 1009.3
20260506231157 69 266 0.0 0.9 0.00 0.15 0.15 72 1009.3
20260506230157 69 336 0.0 0.9 0.00 0.15 0.15 71 1009.3
20260506224157 70 242 0.0 1.7 0.00 0.15 0.15 71 1009.3
20260506223157 70 65 0.0 1.7 0.00 0.15 0.15 71 1009.4
20260506222157 70 205 0.0 1.7 0.00 0.15 0.15 71 1009.3
20260506221157 70 275 0.0 3.5 0.00 0.15 0.15 70 1009.3
20260506220157 70 258 0.0 1.7 0.00 0.15 0.15 71 1009.3
20260506215156 70 258 0.0 5.2 0.00 0.15 0.15 70 1009.2
20260506214156 70 236 3.5 3.5 0.00 0.15 0.15 70 1009.1
20260506213156 70 281 1.7 4.3 0.00 0.15 0.15 70 1009.0
20260506212156 70 259 0.0 2.6 0.00 0.15 0.15 71 1009.0
20260506211156 70 273 0.0 2.6 0.00 0.15 0.15 70 1008.9
20260506210156 70 229 0.9 4.3 0.00 0.15 0.15 70 1008.8
20260506203156 70 252 0.9 2.6 0.00 0.15 0.15 69 1008.9
20260506201156 70 242 0.0 3.5 0.00 0.15 0.15 69 1008.8
20260506200155 70 244 0.9 6.1 0.00 0.15 0.15 70 1008.8
20260506195155 69 266 0.9 6.1 0.00 0.15 0.15 71 1009.0
20260506194155 69 239 2.6 6.1 0.00 0.15 0.15 71 1009.0
20260506193155 69 232 0.0 3.5 0.00 0.15 0.15 72 1009.0
20260506192155 68 220 0.0 5.2 0.00 0.15 0.15 73 1009.1
20260506190155 67 272 1.7 7.8 0.00 0.15 0.15 75 1009.4
20260506185155 67 257 0.0 6.1 0.00 0.15 0.15 74 1009.6
20260506184155 67 290 1.7 6.1 0.00 0.15 0.15 75 1009.6
20260506182154 66 267 3.5 7.0 0.00 0.15 0.15 76 1009.5
20260506181154 66 251 0.9 7.0 0.00 0.15 0.15 77 1009.7
20260506180154 65 223 0.0 6.1 0.00 0.15 0.15 78 1009.8
20260506175154 65 290 0.0 7.0 0.00 0.15 0.15 79 1009.8
20260506174154 64 261 3.5 7.8 0.00 0.15 0.15 80 1009.8
20260506173154 64 288 3.5 7.8 0.00 0.15 0.15 80 1009.9
20260506172154 63 276 0.0 7.8 0.00 0.15 0.15 81 1009.9
20260506171154 63 271 1.7 6.1 0.00 0.15 0.15 81 1009.9
20260506170154 63 241 0.9 7.0 0.00 0.15 0.15 81 1009.9
20260506165153 63 273 3.5 7.0 0.00 0.15 0.15 81 1010.1
20260506164153 62 284 1.7 7.8 0.00 0.15 0.15 81 1010.2
20260506163153 62 302 0.9 7.8 0.00 0.15 0.15 81 1010.0
20260506162153 62 260 0.0 5.2 0.00 0.15 0.15 81 1010.2
20260506161153 62 21 0.9 6.1 0.00 0.15 0.15 81 1010.2
20260506154153 62 207 0.9 7.8 0.05 0.15 0.15 81 1010.3
20260506153153 62 183 0.9 2.6 0.06 0.15 0.15 81 1010.5
20260506151153 62 198 0.9 7.0 0.08 0.15 0.15 81 1010.9
20260506150152 62 231 0.9 7.8 0.07 0.14 0.14 81 1010.9
20260506145152 62 250 1.7 6.1 0.08 0.13 0.13 80 1011.0
20260506144152 62 282 0.0 6.1 0.06 0.10 0.10 80 1011.0
20260506143152 62 240 0.9 3.5 0.07 0.09 0.09 80 1011.0
20260506142152 63 249 0.0 2.6 0.08 0.08 0.08 80 1010.8
20260506141152 63 223 0.0 4.3 0.07 0.07 0.07 79 1011.0
20260506140152 63 258 1.7 3.5 0.07 0.07 0.07 79 1011.1
20260506135152 63 285 0.0 3.5 0.05 0.05 0.05 78 1011.5
20260506133151 64 242 0.9 2.6 0.02 0.02 0.02 75 1011.3
20260506132151 65 226 0.0 6.1 0.00 0.00 0.00 74 1011.2
20260506131151 65 226 0.0 2.6 0.00 0.00 0.00 73 1011.2
20260506130151 65 252 0.0 3.5 0.00 0.00 0.00 72 1010.8
20260506125151 65 257 0.0 3.5 0.00 0.00 0.00 70 1011.0
20260506124151 66 273 0.0 3.5 0.00 0.00 0.00 70 1011.0
20260506123151 66 311 0.0 2.6 0.00 0.00 0.00 69 1011.2
20260506121150 66 248 2.6 7.8 0.00 0.00 0.00 67 1011.4
20260506120150 66 270 1.7 5.2 0.00 0.00 0.00 67 1011.5
20260506115150 66 261 0.9 5.2 0.00 0.00 0.00 66 1011.3
20260506114150 67 269 2.6 6.1 0.00 0.00 0.00 65 1011.0
20260506113150 66 269 1.7 3.5 0.00 0.00 0.00 66 1011.0
20260506112150 66 259 2.6 6.1 0.00 0.00 0.00 66 1010.8
20260506110150 66 271 1.7 7.0 0.00 0.00 0.00 65 1010.7
20260506105149 66 275 1.7 8.7 0.00 0.00 0.00 65 1010.6
20260506104149 66 263 0.0 5.2 0.00 0.00 0.00 65 1010.4
20260506102149 66 178 0.0 2.6 0.00 0.00 0.00 65 1010.4
20260506100149 66 261 2.6 6.1 0.00 0.00 0.00 64 1010.3
20260506095149 67 173 0.9 2.6 0.00 0.00 0.00 64 1010.5
20260506094149 67 283 0.0 5.2 0.00 0.00 0.00 63 1010.5
20260506093149 67 250 1.7 6.1 0.00 0.00 0.00 63 1010.5
20260506091149 68 280 0.0 6.1 0.00 0.00 0.00 61 1010.5
20260506090148 68 245 0.9 6.1 0.00 0.00 0.00 61 1010.7
20260506085149 68 261 0.0 4.3 0.00 0.00 0.00 60 1010.8
20260506084148 68 300 0.0 5.2 0.00 0.00 0.00 59 1010.8
20260506083148 69 259 2.6 3.5 0.00 0.00 0.00 58 1010.7
20260506082148 69 259 0.9 2.6 0.00 0.00 0.00 58 1010.7
20260506080148 69 355 0.0 4.3 0.00 0.00 0.00 56 1010.6